Regional Weather Roundup
Issued by NWS State College, PA

Home | Current Version | Previous Version | Text Only | Print | Product List | Glossary On
Versions: 1 2 3 4 5 6 7 8 9 10 11 12 13 14 15 16 17 18 19 20 21 22 23 24 25 26 27 28 29 30 31 32 33 34 35 36 37 38 39 40 41 42 43 44 45 46 47 48 49 50
000
ASUS41 KCTP 101510
RWRCTP

REGIONAL WEATHER ROUNDUP
NATIONAL WEATHER SERVICE STATE COLLEGE PA
1000 AM EST WED FEB 10 2016

Note: "fair" indicates few or no clouds below 12,000 feet with no
significant weather and/or obstructions to visibility.

* = STATION THAT DOES NOT REPORT PRECIPITATION /E.G. RAIN...SNOW...ETC/
    THUNDER OR FOG.

PAZ002>004-007>009-013>016-020>023-029>032-101600-
WESTERN PENNSYLVANIA

CITY           SKY/WX    TMP DP  RH WIND       PRES   REMARKS
ERIE           LGT SNOW  25  17  72 W14       29.72R WCI  13
MEADVILLE      CLOUDY    21  15  78 W17       29.70R WCI   7
FRANKLIN*      CLOUDY    19  14  79 SW10G21   29.72R WCI   8
NEW CASTLE     LGT SNOW  21  15  78 SW12G18   29.78R WCI   9
BEAVER COUNTY  LGT SNOW  19  14  79 SW13      29.78  WCI   7
BUTLER*        CLOUDY    19  14  79 SW12G18   29.80R WCI   7
PITTSBURGH INT LGT SNOW  18  11  74 SW13G23   29.79R WCI   5
PITTSBURGH     LGT SNOW  20  12  71 SW20G26   29.79R WCI   4
INDIANA*       CLOUDY    21  16  79 W17G25    29.77R HAZE    WCI   7
LATROBE        LGT SNOW  19  16  86 W12G23    29.80R WCI   7
WASHINGTON CO* CLOUDY    18  10  73 SW10G17   29.82R WCI   6
$$

PAZ004>006-010>012-017>019-024>028-033>037-041-042-045-046-049>053-101600-
CENTRAL PENNSYLVANIA

CITY           SKY/WX    TMP DP  RH WIND       PRES   REMARKS
BRADFORD       SNOW      21  15  78 W14G22    29.59R VSB 1/2 WCI   8
DUBOIS         LGT SNOW  20  15  81 W14G28    29.66R WCI   7
CLEARFIELD     LGT SNOW  23  16  74 W14G26    29.68R WCI  11
JOHNSTOWN      LGT SNOW  17  10  74 W17G25    29.67R WCI   1
ALTOONA        FLURRIES  23  14  68 W16       29.71R WCI  10
STATE COLLEGE  PTSUNNY   25  18  74 W17       29.69S WCI  11
WILLIAMSPORT   CLOUDY    29  19  66 W17G24    29.68R
SELINSGROVE    PTSUNNY   30  18  60 W9G17     29.71S
FT INDIANTOWN  PTSUNNY   30  18  61 W15       29.71R
CAPITAL CITY   MOSUNNY   31  16  54 W14G20    29.74R
HARRISBURG     MOSUNNY   31  18  58 W14       29.73S
YORK           MOSUNNY   29  18  63 W12G23    29.74R
$$

PAZ038>040-043-044-047-048-054-055-060>062-067>071-101600-
EASTERN PENNSYLVANIA

CITY           SKY/WX    TMP DP  RH WIND       PRES   REMARKS
SCRANTON       CLOUDY    29  22  75 SW12      29.62R
MOUNT POCONO   CLOUDY    26  18  71 W20G26    29.55S WCI  12
ALLENTOWN      PTSUNNY   33  22  63 W13       29.67R
QUAKERTOWN*    NOT AVBL
READING        MOSUNNY   31  20  63 W7        29.71R
LANCASTER      MOSUNNY   29  21  72 W15       29.72S
COATESVILLE    MOSUNNY   28  27  93 W13       29.72R
POTTSTOWN      CLOUDY    30  23  75 W10       29.71R
BLUE BELL        N/A     32  25  74 W9        29.69S
DOYLESTOWN     CLOUDY    29  24  82 W7        29.67S
WILLOW GROVE   NOT AVBL
NORTH PHILA    CLOUDY    32  25  75 W14       29.72S
PHILADELPHIA   CLOUDY    32  25  75 W17       29.73S
$$



USA.gov is the U.S. government's official web portal to all federal, state and local government web resources and services.